This demonstration page uses our WeatherBlox Daily Observations layout. Learn more.

Left ArrowRight Arrow

31.84235, -102.49876

Hourly Observations for June 27, 2022

Temp ( °F °C ) Dew Point ( °F °C ) Humidity (%) Winds ( mph kmh ) Pressure ( in mb ) Visibility ( mi km ) Precip ( " mm )
12:53 am 00:53 Clear 75 23.9 59 15 58 58 E 18 30 30.12 1020 10 16 0.00 0.00
1:53 am 01:53 Clear 74 23.3 60 15.6 62 62 E 18 30 30.13 1020 10 16 0.00 0.00
2:53 am 02:53 Clear 74 23.3 60 15.6 62 62 E 18 30 30.12 1020 10 16 0.00 0.00
3:53 am 03:53 Clear 72 22.2 61 16.1 68 68 ENE 17 28 30.14 1021 10 16 0.00 0.00
4:53 am 04:53 Clear 70 21.1 57 13.9 64 64 ENE 12 19 30.14 1021 10 16 0.00 0.00
5:53 am 05:53 Clear 69 20.6 57 13.9 66 66 NE 7 11 30.14 1021 10 16 0.00 0.00
6:53 am 06:53 Sunny 68 20 55 12.8 63 63 NE 13 20 30.17 1022 10 16 0.00 0.00
7:53 am 07:53 Mostly Sunny 68 20 57 13.9 68 68 NE 14 22 30.19 1022 10 16 0.00 0.00
8:53 am 08:53 Mostly Sunny 69 20.6 58 14.4 68 68 NNE 14 22 30.20 1023 10 16 0.00 0.00
9:53 am 09:53 Sunny 72 22.2 55 12.8 55 55 NE 15 24 30.22 1023 10 16 0.00 0.00
10:53 am 10:53 Sunny 76 24.4 59 15 56 56 E 12 19 30.19 1022 10 16 0.00 0.00
11:53 am 11:53 Sunny 79 26.1 60 15.6 52 52 E 10 17 30.18 1022 10 16 0.00 0.00
12:53 pm 12:53 Sunny 83 28.3 60 15.6 46 46 E 9 15 30.17 1022 10 16 0.00 0.00
1:53 pm 13:53 Sunny 85 29.4 61 16.1 45 45 NE 8 13 30.14 1021 10 16 0.00 0.00
2:53 pm 14:53 Sunny 86 30 60 15.6 42 42 undefined N/A 30.11 1020 10 16 0.00 0.00
3:53 pm 15:53 Mostly Sunny 89 31.7 59 15 36 36 NE 6 9 30.09 1019 10 16 0.00 0.00
4:53 pm 16:53 Mostly Cloudy 90 32.2 59 15 35 35 NE 14 22 30.06 1018 10 16 0.00 0.00
5:30 pm 17:30 Sunny with Nearby Thunderstorms 89 31.7 58 14.4 35 35 E 12 19 29.95 1014 10 16 0.00 0.00
5:53 pm 17:53 Partly Cloudy with Nearby Thunderstorms 88 31.1 58 14.4 36 36 ENE 15 24 30.04 1017 10 16 0.00 0.00
6:04 pm 18:04 Mostly Sunny 88 31.1 58 14.4 36 36 ENE 13 20 29.95 1014 10 16 0.00 0.00
6:53 pm 18:53 Sunny 88 31.1 59 15 38 38 ENE 15 24 30.04 1017 10 16 0.00 0.00
7:53 pm 19:53 Sunny 86 30 58 14.4 39 39 E 16 26 30.04 1017 10 16 0.00 0.00
8:53 pm 20:53 Sunny 84 28.9 58 14.4 41 41 E 15 24 30.06 1018 10 16 0.00 0.00
9:43 pm 21:43 Clear 80 26.7 61 16.1 52 52 SE 14 22 30.02 1017 10 16 0.00 0.00
9:53 pm 21:53 Clear 80 26.7 60 15.6 51 51 SE 14 22 30.08 1019 10 16 0.00 0.00
10:53 pm 22:53 Clear 77 25 59 15 54 54 ESE 9 15 30.11 1020 10 16 0.00 0.00
11:53 pm 23:53 Cloudy 78 25.6 59 15 52 52 ESE 9 15 30.12 1020 10 16 0.00 0.00

Powered by AerisWeather